Regional Weather Roundup
Issued by NWS Little Rock, AR

Home | Current Version | Previous Version | Text Only | Print | Product List | Glossary On
Versions: 1 2 3 4 5 6 7 8 9 10 11 12 13 14 15 16 17 18 19 20 21 22 23 24 25 26 27 28 29 30 31 32
000
ASUS44 KLZK 241212
RWRLZK

WEATHER ROUNDUP FOR ARKANSAS
NATIONAL WEATHER SERVICE LITTLE ROCK AR
700 AM CDT SAT JUN 24 2017

NOTE: "FAIR" INDICATES FEW OR NO CLOUDS BELOW 12,000 FEET WITH NO
SIGNIFICANT WEATHER AND/OR OBSTRUCTIONS TO VISIBILITY.

ARZ001-003-010-029-241300-
NORTHWEST ARKANSAS

CITY           SKY/WX    TMP DP  RH WIND       PRES   REMARKS
FAYETTEVILLE   CLOUDY    62  59  90 CALM      30.17R
6HR MIN TEMP:  61; 6HR MAX TEMP:  67; 6HR PCP:  0.07;

FORT SMITH     MOCLDY    71  66  84 CALM      30.13R
6HR MIN TEMP:  70; 6HR MAX TEMP:  72;

HARRISON       MOSUNNY   61  57  87 W5        30.18R
6HR MIN TEMP:  58; 6HR MAX TEMP:  66;

BENTONVILLE    PTCLDY    64  54  68 CALM      30.17R
6HR MIN TEMP:  63; 6HR MAX TEMP:  68;

ROGERS         CLOUDY    64  55  72 E3        30.17R
6HR MIN TEMP:  61; 6HR MAX TEMP:  67;

SILOAM SPGS    CLOUDY    63  54  72 CALM      30.16R
6HR MIN TEMP:  61; 6HR MAX TEMP:  70; 6HR PCP:  0.01;

HIGHFILL       MOCLDY    64  56  75 CALM      30.17R
6HR MIN TEMP:  61; 6HR MAX TEMP:  71;

SPRINGDALE     CLEAR     64  57  77 E5        30.18R
$$

ARZ004-005-016-241300-
NORTH CENTRAL ARKANSAS

CITY           SKY/WX    TMP DP  RH WIND       PRES   REMARKS
BATESVILLE     MOSUNNY   64  61  88 NW5       30.11R
6HR MIN TEMP:  64; 6HR MAX TEMP:  68;

FLIPPIN        SUNNY     64  54  68 CALM      30.13R
6HR MIN TEMP:  61; 6HR MAX TEMP:  66;

MTN HOME       MOSUNNY   61  61 100 CALM      30.14R
6HR MIN TEMP:  58; 6HR MAX TEMP:  66;

$$

ARZ040-041-241300-
WEST CENTRAL ARKANSAS

CITY           SKY/WX    TMP DP  RH WIND       PRES   REMARKS
MENA           CLOUDY    68  68 100 CALM      30.13R
MOUNT IDA      CLOUDY    68  66  93 CALM      30.09R
6HR MIN TEMP:  68; 6HR MAX TEMP:  70;

$$

ARZ009-017-025-026-028-241300-
NORTHEAST ARKANSAS

CITY           SKY/WX    TMP DP  RH WIND       PRES   REMARKS
JONESBORO      MOSUNNY   69  61  75 N8        30.06R
6HR MIN TEMP:  68; 6HR MAX TEMP:  71;

WALNUT RIDGE   SUNNY     66  57  72 N10       30.08R
6HR MIN TEMP:  64; 6HR MAX TEMP:  70;

BLYTHEVILLE    SUNNY     69  65  86 N6        30.07R
6HR MIN TEMP:  66; 6HR MAX TEMP:  72;

$$

ARZ022-023-033-042-044-241300-
CENTRAL ARKANSAS

CITY           SKY/WX    TMP DP  RH WIND       PRES   REMARKS
LITTLE ROCK    CLOUDY    69  64  84 N9        30.09R
6HR MIN TEMP:  68; 6HR MAX TEMP:  71;

JACKSONVILLE   PTSUNNY   69  65  88 N3        30.09R
6HR MIN TEMP:  69; 6HR MAX TEMP:  70;

CONWAY           N/A     70  64  83 N7        30.09R
SEARCY         PTSUNNY   68  63  84 N6        30.11R
6HR MIN TEMP:  68; 6HR MAX TEMP:  70;

HOT SPRINGS    CLOUDY    72  62  71 NE10G18   30.09R
6HR MIN TEMP:  69; 6HR MAX TEMP:  73;

RUSSELLVILLE   CLOUDY    69  61  75 N6        30.12R
6HR MIN TEMP:  67; 6HR MAX TEMP:  70;

CLINTON        FAIR      64  63  94 CALM      30.12R
$$

ARZ036-241300-
EAST ARKANSAS

CITY           SKY/WX    TMP DP  RH WIND       PRES   REMARKS
WEST MEMPHIS   MOSUNNY   69  66  90 N7        30.04R
6HR MIN TEMP:  68; 6HR MAX TEMP:  72;

$$

ARZ050-053-066-070-073-241300-
SOUTHWEST ARKANSAS

CITY           SKY/WX    TMP DP  RH WIND       PRES   REMARKS
CAMDEN         CLOUDY    72  68  88 N3        30.07R
TEXARKANA      CLOUDY    70  70 100 NE5       30.05R
6HR MIN TEMP:  70; 6HR MAX TEMP:  72; 6HR PCP: TRACE;

EL DORADO      CLOUDY    71  69  93 NE6       30.06R
6HR MIN TEMP:  70; 6HR MAX TEMP:  71;

DE QUEEN       CLOUDY    72  70  93 CALM      30.05R
6HR MIN TEMP:  72; 6HR MAX TEMP:  73;

$$

ARZ056-057-069-241300-
SOUTHEAST ARKANSAS

CITY           SKY/WX    TMP DP  RH WIND       PRES   REMARKS
PINE BLUFF     CLOUDY    70  67  90 N5        30.07R
6HR MIN TEMP:  69; 6HR MAX TEMP:  71;

STUTTGART      MOSUNNY   70  55  60 N8        30.08R
6HR MIN TEMP:  70; 6HR MAX TEMP:  72;

MONTICELLO     CLOUDY    71  69  93 CALM      30.06R
6HR MIN TEMP:  70; 6HR MAX TEMP:  71;


$$






USA.gov is the U.S. government's official web portal to all federal, state and local government web resources and services.